Showing default

IRIDIUM 134, 43075

Orbit data source: Space-Track

IRIDIUM 134, 43075 is a payload satellite owned by Iridium (US) in LEO that was launched on Sat, 23 Dec 2017 UTC via an FALCON 9 launch vehicle from the Air Force Western Test Range (AFWTR). Payload-class satellites include a variety of spacecraft equipped with specific instruments for various scientific and technological missions. These include communications satellites like Starlink; space stations such as the ISS; scientific satellites like the Hubble; Earth observation satellites from companies like Planet Labs, Umbra, and HawkEye 360; GPS; miniature CubeSats for education and research; and military/defense satellites.

Loading next visibility...
Identifier
43075, 2017-083F
Orbit
LEO
Last TLE update
11 hours ago
Origin
Manufacturer
OATK SSG Gilbert
Mission
Operational Commercial Communications
Bus & Motor
ELITEBUS, Unknown motor
Mass
860 kg wet, 700 kg dry
Launch date (UTC)
2017-12-23 (8 years ago)
Launch vehicle
FALCON 9
Launch site
Air Force Western Test Range (AFWTR)
Object type
Payload
Rocket body
Debris
Shape & HBR
Trap Box + 2 Pan, 9.4 m
Radar Cross Section
14.423 m², Large (>1 m²)

Expand to show TLE details & history

TLE from 11 hours ago
0 IRIDIUM 134
1 43075U 17083F   25186.30688855 -.00000018  00000-0 -13454-4 0  9995
2 43075  86.3972 107.0912 0002007  75.5465 284.5954 14.34217428394387
Epoch: 2025-07-05T07:21Z
TLE epoch observation values (Epoch: 2025-07-05T07:21:55.17Z)
Latitude
0.00002°
Longitude
73.06451°
Altitude
780.357 km
Speed
7.464 km/s
True Right ascension
07h 08m 21s
True Declination
0° 00' 00"
Sunlit
Object was in daylight at epoch
Visualization orbit readout
Latitude
10.52264°
Longitude
-107.79068°
Altitude
780.101 km
Speed
7.465 km/s
Apparent Right ascension
18h 41m 22s
Apparent Declination
-13° 09' 59"
Sunlit
Object is in full shadow
Visualization observer readout
Local Sidereal Time
06:07:26
Azimuth
342.046° N
Elevation
-62.228°
Doppler factor
1
Orbital elements
Apogee altitude
776.068 km
Perigee altitude
773.197 km
Semi-major axis
7,152.77 km
Eccentricity
0.0002
Inclination
86.3972°
RAAN
107.0912°
Arg. of periapsis
75.5465°
True anomaly
Unknown
Mean anomaly
284.5954°
Eccentric anomaly
Unknown
Mean motion
3.58783 °/min
Orbital period
100.34 mins
BSTAR
-0.000013454
Loading maneuver chart data...
Loading SW <> Apogee altitude chart data...
Loading historical data...
Loading historical data...
Loading historical data...
Loading historical data...
Loading historical data...
Loading historical data...
Loading historical data...

IRIDIUM 134 Visibility forecast

Observer location: undefined°, undefined°

Span
Click to sort rows by Start time (UTC) header in descending order
Start Az.
Max El. time (UTC)
Max El. Az.
Max El.
End time (UTC)
End Az.
9 mins2025-07-05 19:11:56.967Z174.574° S2025-07-05 19:15:56.967Z131.842° SE43.653°2025-07-05 19:20:56.967Z6.106° NNE
6 mins2025-07-06 05:43:56.967Z41.641° NE2025-07-06 05:46:56.967Z83.44° E18.273°2025-07-06 05:49:56.967Z120.248° SE
8 mins2025-07-06 07:23:56.967Z338.108° N2025-07-06 07:27:56.967Z256.307° W34.808°2025-07-06 07:31:56.967Z203.31° SW
|